Location: Kalberh�ni
(46.4610°N, 7.2453°E)
Time: 05:32:31
(UTC+00:00)

Cosmos 1802 Rocket - Pass Details

Date: 29 October 2021
Orbit: 955 x 1010 km, 82.9° (Epoch: 05 December)

Event Time Altitude Azimuth Distance (km) Brightness Sun altitude
Rises 20:49:42 0° 251° (WSW) 3,629 7.3 -45.4°
Reaches altitude 10° 20:54:19 10° 283° (WNW) 2,694 6.8 -46.0°
Maximum altitude 20:56:21 12° 303° (WNW) 2,582 6.7 -46.3°
Drops below altitude 10° 20:58:23 10° 322° (NW) 2,706 6.8 -46.6°
Sets 21:03:05 0° 355° (N) 3,670 7.4 -47.2°
